User: anonymous   Login
Location: Unspecified
(0.0000°N, 0.0000°E)
Time: 02:27:09
(UTC+00:00)
Language:

USA 157 - Orbit

View from above orbital plane
View from above orbital plane
View from above satellite
View from above satellite

Ground track
Ground track

The orbit data is extracted from the following two-line orbital elements,

1 26715U 01009A   19140.42476896 -.00000376  00000-0  00000+0 0  9998
2 26715   8.9711  32.4523 0002298  17.2576  91.9683  1.00268005  5729
Epoch (UTC): 20 May 2019 10:11:40
Eccentricity: 0.0002298
inclination: 8.9711°
perigee height: 35777 km
apogee height: 35797 km
right ascension of ascending node: 32.4523°
argument of perigee: 17.2576°
revolutions per day: 1.00268005
mean anomaly at epoch: 91.9683°
orbit number at epoch: 572

The dashed part of the orbit path shows where the satellite is in the earth's shadow,  

DLR